Date String (YYYY-MM-DD hh:mm:ss) UTC,Instrument flags,Ambient pressure (hPa),Sample flow (lpm),Bypass flow (lpm),Sample temperature (°C),Ambient temperature (°C),ASC tube jacket temperature (°C),LED temperature (°C),Box temperature (°C),Sample RH (%),Span deviation,Mass concentration (μg/m³),Mass concentration (μg/m³),Mass concentration (μg/m³)
DateTimeUTC,F1_M11,P_M11,Q1_M11,Q2_M11,T1_M11,T2_M11,T3_M11,T4_M11,T5_M11,U1_M11,ZSPAN_M11,X2_M11,X0_M11,X1_M11
2022-04-01 17:00:00,,0822.0,5.01,0.00,24.0,23.4,00.0,33.0,25.9,13.7,0000.0,0004.41,0012.75,0003.60
2022-04-01 17:01:00,,0822.1,4.98,0.00,24.0,23.4,00.0,33.0,25.9,13.8,0000.0,0004.43,0013.31,0003.60
2022-04-01 17:02:00,,0822.0,5.01,0.00,24.0,23.4,00.0,33.0,25.9,14.0,0000.0,0004.42,0013.77,0003.61
2022-04-01 17:03:00,,0822.1,5.00,0.00,24.0,23.4,00.0,33.0,25.9,13.9,0000.0,0004.50,0014.08,0003.61
2022-04-01 17:04:00,,0822.1,4.98,0.00,24.0,23.4,00.0,33.0,25.9,13.6,0000.0,0004.49,0013.94,0003.62
2022-04-01 17:05:00,,0822.1,5.00,0.00,24.0,23.4,00.0,33.0,25.8,13.5,0000.0,0004.46,0014.16,0003.63
2022-04-01 17:06:00,,0822.1,5.00,0.00,24.0,23.4,00.0,33.0,25.8,13.4,0000.0,0004.45,0014.63,0003.65
2022-04-01 17:07:00,,0822.1,4.98,0.00,24.0,23.4,00.0,33.0,25.8,13.4,0000.0,0004.48,0014.43,0003.67
2022-04-01 17:08:00,,0822.1,5.01,0.00,24.0,23.4,00.0,33.0,25.8,13.4,0000.0,0004.51,0013.69,0003.69
2022-04-01 17:09:00,,0822.1,5.01,0.00,24.0,23.4,00.0,33.0,25.9,13.2,0000.0,0004.50,0013.43,0003.70
2022-04-01 17:10:00,,0822.1,5.00,0.00,24.0,23.4,00.0,33.0,25.9,13.6,0000.0,0004.52,0013.22,0003.71
2022-04-01 17:11:00,,0822.0,5.00,0.00,24.1,23.4,00.0,33.0,25.9,13.3,0000.0,0004.56,0012.88,0003.72
2022-04-01 17:12:00,,0822.0,5.01,0.00,24.1,23.4,00.0,33.0,26.0,13.1,0000.0,0004.55,0012.67,0003.73
2022-04-01 17:13:00,,0822.0,4.98,0.00,24.1,23.5,00.0,33.0,26.0,13.4,0000.0,0004.53,0011.72,0003.74
2022-04-01 17:14:00,,0822.0,5.01,0.00,24.1,23.5,00.0,33.0,25.9,13.1,0000.0,0004.48,0011.51,0003.74
2022-04-01 17:15:00,,0821.9,5.00,0.00,24.1,23.5,00.0,33.0,26.0,12.9,0000.0,0004.50,0011.22,0003.76
2022-04-01 17:16:00,,0821.9,4.99,0.00,24.1,23.5,00.0,33.0,26.0,13.3,0000.0,0004.53,0011.31,0003.78
2022-04-01 17:17:00,,0822.0,5.00,0.00,24.1,23.5,00.0,33.1,26.0,12.9,0000.0,0004.56,0010.87,0003.79
2022-04-01 17:18:00,,0822.0,5.01,0.00,24.2,23.6,00.0,33.1,26.1,13.1,0000.0,0004.55,0010.58,0003.80
2022-04-01 17:19:00,,0821.9,4.99,0.00,24.2,23.6,00.0,33.1,26.1,13.2,0000.0,0004.57,0010.30,0003.81
2022-04-01 17:20:00,,0822.0,5.01,0.00,24.2,23.7,00.0,33.1,26.1,13.6,0000.0,0004.56,0009.94,0003.82
2022-04-01 17:21:00,,0821.9,5.01,0.00,24.2,23.7,00.0,33.1,26.1,13.0,0000.0,0004.57,0009.48,0003.83
2022-04-01 17:22:00,,0821.9,4.99,0.00,24.2,23.7,00.0,33.1,26.1,12.8,0000.0,0004.61,0009.78,0003.85
2022-04-01 17:23:00,,0821.9,5.01,0.00,24.2,23.7,00.0,33.1,26.1,13.0,0000.0,0004.65,0009.64,0003.86
2022-04-01 17:24:00,,0821.9,5.00,0.00,24.2,23.7,00.0,33.1,26.0,12.7,0000.0,0004.68,0009.48,0003.88
2022-04-01 17:25:00,,0821.9,5.01,0.00,24.2,23.7,00.0,33.2,26.0,12.6,0000.0,0004.70,0009.58,0003.90
2022-04-01 17:26:00,,0821.8,4.99,0.00,24.2,23.7,00.0,33.2,26.1,12.9,0000.0,0004.73,0010.36,0003.91
2022-04-01 17:27:00,,0821.8,5.01,0.00,24.2,23.7,00.0,33.2,26.0,13.0,0000.0,0004.76,0011.59,0003.93
2022-04-01 17:28:00,,0822.0,5.01,0.00,24.2,23.7,00.0,33.2,26.1,12.7,0000.0,0004.78,0012.01,0003.95
2022-04-01 17:29:00,,0821.8,4.99,0.00,24.3,23.7,00.0,33.2,26.1,12.9,0000.0,0004.82,0012.80,0003.95
2022-04-01 17:30:00,,0821.8,5.01,0.00,24.3,23.7,00.0,33.2,26.2,12.9,0000.0,0004.78,0013.00,0003.95
2022-04-01 17:31:00,,0821.9,5.01,0.00,24.3,23.7,00.0,33.2,26.2,13.3,0000.0,0004.81,0013.27,0003.95
2022-04-01 17:32:00,,0821.8,4.98,0.00,24.3,23.7,00.0,33.2,26.2,12.9,0000.0,0004.78,0013.24,0003.95
2022-04-01 17:33:00,,0821.8,5.01,0.00,24.3,23.7,00.0,33.2,26.2,12.5,0000.0,0004.72,0012.87,0003.95
2022-04-01 17:34:00,,0821.7,5.00,0.00,24.3,23.7,00.0,33.2,26.2,12.6,0000.0,0004.67,0012.43,0003.95
2022-04-01 17:35:00,,0821.8,4.98,0.00,24.3,23.7,00.0,33.2,26.2,12.7,0000.0,0004.68,0013.12,0003.96
2022-04-01 17:36:00,,0821.7,5.01,0.00,24.3,23.7,00.0,33.2,26.1,12.7,0000.0,0004.72,0013.26,0003.96
2022-04-01 17:37:00,,0821.8,5.01,0.00,24.3,23.7,00.0,33.3,26.1,12.3,0000.0,0004.70,0012.52,0003.97
2022-04-01 17:38:00,,0821.8,5.00,0.00,24.3,23.7,00.0,33.3,26.1,12.7,0000.0,0004.65,0011.54,0003.97
2022-04-01 17:39:00,,0821.8,4.99,0.00,24.3,23.7,00.0,33.3,26.1,12.5,0000.0,0004.63,0011.67,0003.95
2022-04-01 17:40:00,,0821.7,5.01,0.00,24.3,23.7,00.0,33.3,26.1,12.7,0000.0,0004.61,0011.63,0003.95
2022-04-01 17:41:00,,0821.6,5.01,0.00,24.3,23.7,00.0,33.3,26.1,12.1,0000.0,0004.63,0011.59,0003.96
2022-04-01 17:42:00,,0821.7,4.99,0.00,24.3,23.6,00.0,33.3,26.1,12.0,0000.0,0004.61,0011.44,0003.96
2022-04-01 17:43:00,,0821.6,5.01,0.00,24.3,23.7,00.0,33.3,26.2,12.4,0000.0,0004.61,0012.25,0003.96
2022-04-01 17:44:00,,0821.7,5.01,0.00,24.3,23.7,00.0,33.3,26.2,11.9,0000.0,0004.60,0012.42,0003.96
2022-04-01 17:45:00,,0821.8,4.98,0.00,24.3,23.7,00.0,33.3,26.2,11.8,0000.0,0004.63,0012.74,0003.94
2022-04-01 17:46:00,,0821.8,5.01,0.00,24.3,23.7,00.0,33.3,26.2,11.2,0000.0,0004.59,0012.38,0003.92
2022-04-01 17:47:00,,0821.8,5.00,0.00,24.3,23.7,00.0,33.3,26.2,11.1,0000.0,0004.54,0012.34,0003.89
2022-04-01 17:48:00,,0821.8,5.01,0.00,24.3,23.8,00.0,33.3,26.2,11.0,0000.0,0004.47,0012.28,0003.86
2022-04-01 17:49:00,,0821.8,4.99,0.00,24.4,23.8,00.0,33.3,26.3,11.5,0000.0,0004.43,0012.04,0003.82
2022-04-01 17:50:00,,0821.8,5.01,0.00,24.4,23.9,00.0,33.3,26.3,11.5,0000.0,0004.44,0011.13,0003.80
2022-04-01 17:51:00,,0821.8,4.99,0.00,24.4,23.9,00.0,33.3,26.3,11.4,0000.0,0004.40,0010.86,0003.79
2022-04-01 17:52:00,,0821.8,5.00,0.00,24.5,23.9,00.0,33.3,26.3,11.6,0000.0,0004.38,0010.34,0003.77
2022-04-01 17:53:00,,0821.8,4.99,0.00,24.5,23.9,00.0,33.3,26.3,11.9,0000.0,0004.39,0010.34,0003.76
2022-04-01 17:54:00,,0821.8,5.00,0.00,24.5,23.9,00.0,33.4,26.4,11.6,0000.0,0004.38,0009.63,0003.76
2022-04-01 17:55:00,,0821.8,5.01,0.00,24.5,23.9,00.0,33.4,26.3,11.6,0000.0,0004.41,0010.28,0003.76
2022-04-01 17:56:00,,0821.8,5.00,0.00,24.5,24.0,00.0,33.4,26.4,11.7,0000.0,0004.42,0010.32,0003.77
2022-04-01 17:57:00,,0821.8,4.99,0.00,24.6,24.0,00.0,33.4,26.5,12.1,0000.0,0004.45,0010.10,0003.78
2022-04-01 17:58:00,,0821.8,5.01,0.00,24.6,24.1,00.0,33.4,26.6,12.2,0000.0,0004.47,0009.97,0003.79
2022-04-01 17:59:00,,0821.8,4.99,0.00,24.6,24.1,00.0,33.4,26.6,11.8,0000.0,0004.50,0009.79,0003.81
